Torna al catalogo

GOKTURK-1A

AttivoMilitareSSO
NORAD 41875·PAYLOAD·🇹🇷 Turkey

Lanciato Dec 5, 2016 da Guiana Space Centre

Loading…

Prossimi Passaggi (prossime 24 ore)

TLE

AggiornatoSource: Space-Track

Epoca: Sep 14, 2026, 23:47 UTC

1 41875U 16073A   26257.99160612  .00000188  00000-0  46176-4 0  9993
2 41875  98.1537 151.3693 0001546  77.1928 282.9447 14.62748977521951

Traccia GOKTURK-1A in tempo reale con AllMySat

Download on the App Store